Location: Unspecified
(43.4680°N, 87.1740°E)
Time: 09:43:00
(UTC+00:00)

SKYMED 2 - Pass Details

Date: 17 January 2020
Orbit: 621 x 623 km, 97.9° (Epoch: 19 February)

Event Time Altitude Azimuth Distance (km) Brightness Sun altitude
Rises 11:58:19 0° 17° (NNE) 2,913 6.7 -10.2°
Reaches altitude 10° 12:00:34 10° 23° (NNE) 2,001 5.8 -10.5°
Maximum altitude 12:04:49 51° 100° (E) 784 3.7 -11.3°
Drops below altitude 10° 12:09:02 10° 176° (S) 1,984 6.3 -12.0°
Sets 12:11:15 0° 182° (S) 2,886 7.2 -12.4°
